This is the latest recevied weather packets stored in our database for station/object F6JSP-13. If no packets are shown the sender has not sent any weather packets the latest 10 day(s).
| Time | Temp. | Humidity | Pressure | Rain* | Wind** | Luminosity | Snow |
|---|---|---|---|---|---|---|---|
| 1778121905 | 8.89° C | 92% | 1011.5 hPa | 0 mm | - | 0 W/m² | - |
| 1778121605 | 8.89° C | 91% | 1011.5 hPa | 0 mm | - | 0 W/m² | - |
| 1778121005 | 9.44° C | 91% | 1011.5 hPa | 0 mm | - | 0 W/m² | - |
| 1778120105 | 9.44° C | 89% | 1011.6 hPa | 0 mm | - | 0 W/m² | - |
| 1778118905 | 10° C | 88% | 1011.5 hPa | 0 mm | - | 0 W/m² | - |
| 1778117405 | 10.56° C | 89% | 1011.6 hPa | 0 mm | - | 0 W/m² | - |
| 1778116205 | 10.56° C | 88% | 1011.5 hPa | 0 mm | - | 0 W/m² | - |
| 1778115305 | 11.11° C | 88% | 1011.5 hPa | 0 mm | - | 0 W/m² | - |
| 1778113805 | 11.11° C | 89% | 1011.5 hPa | 0 mm | - | 0 W/m² | - |
| 1778113205 | 11.11° C | 89% | 1011.6 hPa | 0 mm | - | 0 W/m² | - |
| 1778111405 | 11.67° C | 96% | 1011.5 hPa | 0 mm | - | 0 W/m² | - |
| 1778109005 | 11.67° C | 96% | 1011.4 hPa | 0 mm | - | 0 W/m² | - |
| 1778106305 | 11.67° C | 96% | 1011.5 hPa | 0 mm | - | 0 W/m² | - |
| 1778105105 | 11.67° C | 95% | 1011.3 hPa | 0 mm | - | 0 W/m² | - |
| 1778103605 | 11.67° C | 94% | 1011.2 hPa | 0 mm | - | 0 W/m² | - |
| 1778098206 | 12.22° C | 89% | 1010.7 hPa | 0 mm | - | 0 W/m² | - |
| 1778097906 | 12.22° C | 89% | 1010.7 hPa | 0 mm | - | 0 W/m² | - |
| 1778096106 | 12.78° C | 86% | 1010.3 hPa | 0 mm | - | 0 W/m² | - |
| 1778095806 | 12.78° C | 85% | 1010.4 hPa | 0 mm | - | 0 W/m² | - |
| 1778094607 | 12.78° C | 82% | 1010.3 hPa | 0 mm | - | 1 W/m² | - |
| 1778094305 | 12.78° C | 82% | 1010.1 hPa | 0 mm | - | 1 W/m² | - |
| 1778092806 | 13.33° C | 79% | 1010 hPa | 0 mm | - | 6 W/m² | - |
| 1778091906 | 14.44° C | 75% | 1009.8 hPa | 0 mm | - | 7 W/m² | - |
| 1778089806 | 14.44° C | 70% | 1009.7 hPa | 0 mm | - | 34 W/m² | - |
| 1778088606 | 15° C | 67% | 1009.5 hPa | 0 mm | - | 55 W/m² | - |
* Rain latest hour (hover to see other rain measurements)
** Current wind speed in m/s (hover to see current wind gust speed)